Weather in Tsagkarada

Greece     39°22′58″N   23°10′38″E
temp.,
°C
wind,
m/s
gust,
m/s
humid.,
%
clouds,
%
prec.,
mm/h
press.,
hPa
HPBL,
m
26 july, mon
mon2600:00+28wsw33490 0.0 101617
03:00+27ene45580 0.0 1016269
06:00+26e43610 0.0 1017476
09:00+25ese43630 0.0 1018581
12:00+25ese22600 0.0 1019285
15:00+26ese44570 0.0 1018266
18:00+26se66560 0.0 1017268
21:00+27sse67530 0.0 1017165
27 july, tue
tue2700:00+28ssw34450 0.0 101722
03:00+28e34470 0.0 101831
06:00+27ese34530 0.0 1018123
09:00+26ese22620 0.0 1019130
12:00+27e22570 0.0 1019173
15:00+27se55600 0.0 1017250
18:00+27sse77620 0.0 1016193
21:00+28sse67560 0.0 101590
28 july, wed
wed2800:00+29s23520 0.0 101612
03:00+27ene44600 0.0 101659
06:00+27ssw11650 0.0 101633
09:00+27n11640 0.0 101614
12:00+27n22610 0.0 1016130
15:00+28ese33550 0.0 1015133
18:00+28sse56560 0.0 101391
21:00+30ssw23500 0.0 101311
29 july, thu
thu2900:00+29ese33510 0.0 101415
03:00+28ese22630 0.0 101318
06:00+28s33610 0.0 101320
09:00+28sse33660 0.0 101441
12:00+28e11630 0.0 101467
15:00+28se34600 0.0 1013154
18:00+28sse67630 0.0 1011144
21:00+28sse56610 0.0 101074
30 july, fri
fri3000:00+30ssw33530 0.0 101112
03:00+28e33640 0.0 101130
06:00+28ene01680 0.0 101111
09:00+28sse11680 0.0 101215
12:00+28se44670 0.0 1012134
15:00+28se66660 0.0 1010171
18:00+27sse79680 0.0 1008168
21:00+29sse68591 0.0 100867